Napa County, CA

1:46 AM PST on November 23, 2017 (GMT -0800)
Napa County

Weather History for KAPC - February, 2013

Change the Weather History Date:

Friday, February 8, 2013

  Actual Average Record
Temperature  
Mean Temperature 46 °F 48 °F  
Max Temperature 58 °F 58 °F 73 °F (2016)
Min Temperature 33 °F 38 °F 23 °F (2003)
Degree Days  
Heating Degree Days 19    
Month to date heating degree days 138  
Since 1 July heating degree days 1870  
Cooling Degree Days 0    
Month to date cooling degree days 0  
Year to date cooling degree days 0  
Moisture  
Dew Point 33 °F    
Average Humidity 65    
Maximum Humidity 100    
Minimum Humidity 30    
Precipitation  
Precipitation 0.00 in - 2.44 in (1985)
Month to date precipitation 0.03  
Year to date precipitation 0.37  
Since 1 July precipitation 8.16  
Sea Level Pressure  
Sea Level Pressure 29.95 in    
Wind  
Wind Speed 5 mph (NW)    
Max Wind Speed 17 mph    
Max Gust Speed 21 mph    
Visibility 10 miles    
Events      
T = Trace of Precipitation, MM = Missing Value Source: NWS Daily Summary

Daily Weather History Graph

Daily Weather History Graph

Search for Another Location

Airport or City:

Trip Planner

Search our weather history database for the weather conditions in past years. The results will help you decide how hot, cold, wet, or windy it might be!

Date:

Astronomy

Feb. 08, 2013 Rise Set
Actual Time 7:06 AM PST 5:40 PM PST
Civil Twilight 6:39 AM PST 6:07 PM PST
Nautical Twilight 6:08 AM PST 6:38 PM PST
Astronomical Twilight 5:37 AM PST 7:09 PM PST
Moon 5:39 AM PST (2/8) 4:20 PM PST (2/8)
Length of Visible Light 11h 28m
Length of Day
10h 33m
Waning Crescent, 3% of the Moon is Illuminated
Feb 8
Waning Crescent
Feb 9
New
Feb 17
First Quarter
Feb 25
Full
Mar 4
Last Quarter

Hourly Weather History & Observations

Time (PST) Temp. Windchill Dew Point Humidity Pressure Visibility Wind Dir Wind Speed Gust Speed Precip Events Conditions
12:54 AM 34.0 °F - 33.1 °F 96% 29.97 in 10.0 mi Calm Calm - N/A   Clear
1:54 AM 36.0 °F - 34.0 °F 93% 29.96 in 10.0 mi Calm Calm - N/A   Clear
2:54 AM 35.1 °F 31.0 °F 33.1 °F 92% 29.94 in 10.0 mi NNE 4.6 mph - N/A   Clear
3:54 AM 35.1 °F 31.0 °F 33.1 °F 92% 29.94 in 10.0 mi North 4.6 mph - N/A   Scattered Clouds
4:54 AM 36.0 °F 33.3 °F 34.0 °F 93% 29.94 in 10.0 mi North 3.5 mph - N/A   Clear
5:54 AM 37.0 °F - 35.1 °F 93% 29.95 in 10.0 mi Calm Calm - N/A   Overcast
6:54 AM 36.0 °F 33.3 °F 34.0 °F 93% 29.96 in 10.0 mi NNW 3.5 mph - N/A   Partly Cloudy
7:54 AM 36.0 °F - 33.1 °F 89% 29.98 in 10.0 mi Calm Calm - N/A   Partly Cloudy
8:54 AM 42.1 °F - 37.9 °F 85% 29.99 in 10.0 mi Calm Calm - N/A   Clear
9:54 AM 46.0 °F - 37.0 °F 71% 30.00 in 10.0 mi Calm Calm - N/A   Scattered Clouds
10:54 AM 50.0 °F - 36.0 °F 59% 30.00 in 10.0 mi Variable 3.5 mph - N/A   Scattered Clouds
11:54 AM 52.0 °F - 37.9 °F 59% 29.97 in 10.0 mi SSW 5.8 mph - N/A   Mostly Cloudy
12:54 PM 54.0 °F - 39.9 °F 59% 29.95 in 10.0 mi SW 11.5 mph - N/A   Mostly Cloudy
1:54 PM 55.0 °F - 41.0 °F 59% 29.93 in 10.0 mi South 15.0 mph - N/A   Mostly Cloudy
2:54 PM 55.0 °F - 39.0 °F 55% 29.91 in 10.0 mi SSW 8.1 mph - N/A   Partly Cloudy
3:54 PM 55.0 °F - 39.0 °F 55% 29.91 in 10.0 mi West 11.5 mph 19.6 mph N/A   Clear
4:54 PM 55.9 °F - 24.1 °F 29% 29.92 in 10.0 mi North 8.1 mph 17.3 mph N/A   Clear
5:54 PM 48.9 °F - 25.0 °F 39% 29.93 in 10.0 mi North 8.1 mph - N/A   Clear
6:54 PM 44.1 °F 41.5 °F 27.0 °F 51% 29.94 in 10.0 mi NNW 4.6 mph - N/A   Clear
7:54 PM 39.9 °F 37.8 °F 27.0 °F 60% 29.95 in 10.0 mi North 3.5 mph - N/A   Clear
8:54 PM 37.9 °F - 27.0 °F 65% 29.96 in 10.0 mi Calm Calm - N/A   Clear
9:54 PM 43.0 °F 40.3 °F 28.0 °F 56% 29.96 in 10.0 mi WNW 4.6 mph - N/A   Clear
10:54 PM 45.0 °F 43.5 °F 25.0 °F 46% 29.97 in 10.0 mi NNW 3.5 mph - N/A   Clear
11:54 PM 45.0 °F 40.1 °F 23.0 °F 42% 29.97 in 10.0 mi North 9.2 mph - N/A   Clear